Delavan, Wisconsin, United States (53115)
Lat: 42.63N, Lon: 88.64W
Wx Zone: WIZ070
Local Info
Past Weather Observations for Today

NOTE: This archive is for the closest National Weather Service station to Delavan. Information may differ from the station used for current weather conditions.

Click here for Long-term Archive

Time Weather Temperature Dewpoint Humidity Pressure Winds Precip Visibility
19:35
Overcast
39°F / 4°C 34°F / 1°C 81% 29.95 in
(1014 mb)
ENE 10.4 mph
(ENE 17 kph)
- 10SM
19:15
Overcast
39°F / 4°C 36°F / 2°C 87% 29.95 in
(1014 mb)
ENE 9.2 mph
(ENE 15 kph)
- 10SM
18:55
Overcast
39°F / 4°C 36°F / 2°C 87% 29.95 in
(1014 mb)
ENE 9.2 mph
(ENE 15 kph)
0.01 in
(0.25 mm)
10SM
18:35
Overcast
Unknown Precip
39°F / 4°C 36°F / 2°C 87% 29.92 in
(1013 mb)
ENE 11.5 mph
(ENE 19 kph)
0.01 in
(0.25 mm)
10SM
18:15
Overcast
Unknown Precip
39°F / 4°C 36°F / 2°C 87% 29.95 in
(1014 mb)
E 9.2 mph
(E 15 kph)
- 5SM
17:55
Mostly Cloudy
Unknown Precip
39°F / 4°C 34°F / 1°C 81% 29.95 in
(1014 mb)
E 6.9 mph
(E 11 kph)
0.01 in
(0.25 mm)
10SM
17:35
Overcast
Unknown Precip
39°F / 4°C 34°F / 1°C 81% 29.95 in
(1014 mb)
E 8.1 mph
(E 13 kph)
0.01 in
(0.25 mm)
7SM
17:15
Mostly Cloudy
Unknown Precip
39°F / 4°C 36°F / 2°C 87% 29.98 in
(1015 mb)
E 4.6 mph
(E 7 kph)
- 5SM
16:55
Mostly Cloudy
Unknown Precip
41°F / 5°C 36°F / 2°C 81% 29.98 in
(1015 mb)
ENE 3.5 mph
(ENE 6 kph)
- 10SM
16:35
Overcast
Light Rain
41°F / 5°C 34°F / 1°C 76% 29.98 in
(1015 mb)
ENE 4.6 mph
(ENE 7 kph)
- 5SM
16:15
Mostly Cloudy
Drizzle
41°F / 5°C 36°F / 2°C 81% 29.98 in
(1015 mb)
E 4.6 mph
(E 7 kph)
- 10SM
15:55
Mostly Cloudy
Light Rain
43°F / 6°C 34°F / 1°C 71% 29.98 in
(1015 mb)
E 5.8 mph
(E 9 kph)
- 10SM
15:35
Mostly Cloudy
Light Rain
43°F / 6°C 36°F / 2°C 76% 29.98 in
(1015 mb)
ESE 4.6 mph
(ESE 7 kph)
- 10SM
15:15
Overcast
Unknown Precip
43°F / 6°C 36°F / 2°C 76% 29.98 in
(1015 mb)
E 3.5 mph
(E 6 kph)
- 5SM
14:55
Overcast
Rain
45°F / 7°C 32°F / 0°C 61% 29.98 in
(1015 mb)
E 5.8 mph
(E 9 kph)
0.02 in
(0.51 mm)
4SM
14:35
Mostly Cloudy
Rain
46°F / 8°C 27°F / -3°C 46% 29.98 in
(1015 mb)
SSE 9.2 mph
(SSE 15 kph)
- 10SM
14:15
Partly Cloudy
50°F / 10°C 21°F / -6°C 32% 29.98 in
(1015 mb)
ESE 9.2 mph
(ESE 15 kph)
- 10SM
13:55
Mostly Cloudy
52°F / 11°C 21°F / -6°C 30% 29.98 in
(1015 mb)
SE 12.7 mph
(SE 20 kph)
- 10SM
13:35
Mostly Cloudy
54°F / 12°C 23°F / -5°C 30% 29.98 in
(1015 mb)
SE 12.7 mph
(SE 20 kph)
- 10SM
13:15
Mostly Cloudy
55°F / 13°C 18°F / -8°C 23% 30.01 in
(1016 mb)
SSE 5.8 mph
(SSE 9 kph)
- 10SM
12:55
Mostly Cloudy
55°F / 13°C 18°F / -8°C 23% 30.01 in
(1016 mb)
S 8.1 mph
(S 13 kph)
- 10SM
12:35
Partly Cloudy
54°F / 12°C 16°F / -9°C 22% 30.01 in
(1016 mb)
SSE 4.6 mph
(SSE 7 kph)
- 10SM
12:15
Partly Cloudy
54°F / 12°C 18°F / -8°C 24% 30.01 in
(1016 mb)
SW 9.2 mph
(SW 15 kph)
- 10SM
11:55
Partly Cloudy
54°F / 12°C 16°F / -9°C 22% 30.04 in
(1017 mb)
S 5.8 mph
(S 9 kph)
- 10SM
11:35
Clear
55°F / 13°C 16°F / -9°C 21% 30.04 in
(1017 mb)
SSE 5.8 mph
(SSE 9 kph)
- 10SM
11:15
Partly Cloudy
55°F / 13°C 16°F / -9°C 21% 30.04 in
(1017 mb)
S 8.1 mph
(S 13 kph)
- 10SM
10:55
Mostly Cloudy
55°F / 13°C 16°F / -9°C 21% 30.04 in
(1017 mb)
SE 6.9 mph
(SE 11 kph)
- 10SM
10:35
Partly Cloudy
55°F / 13°C 18°F / -8°C 23% 30.04 in
(1017 mb)
SSE 6.9 mph
(SSE 11 kph)
- 10SM
10:15
Clear
54°F / 12°C 18°F / -8°C 24% 30.04 in
(1017 mb)
S 4.6 mph
(S 7 kph)
- 10SM
09:55
Clear
54°F / 12°C 19°F / -7°C 26% 30.06 in
(1018 mb)
SSE 8.1 mph
(SSE 13 kph)
- 10SM
09:35
Partly Cloudy
54°F / 12°C 18°F / -8°C 24% 30.06 in
(1018 mb)
SE 6.9 mph
(SE 11 kph)
- 10SM
09:15
Mostly Cloudy
50°F / 10°C 21°F / -6°C 32% 30.06 in
(1018 mb)
SSE 6.9 mph
(SSE 11 kph)
- 10SM
08:55
Overcast
48°F / 9°C 21°F / -6°C 34% 30.06 in
(1018 mb)
SE 4.6 mph
(SE 7 kph)
- 10SM
08:35
Overcast
46°F / 8°C 23°F / -5°C 40% 30.06 in
(1018 mb)
E 5.8 mph
(E 9 kph)
- 10SM
08:15
Overcast
43°F / 6°C 28°F / -2°C 57% 30.06 in
(1018 mb)
Calm - 10SM
07:55
Overcast
41°F / 5°C 28°F / -2°C 61% 30.06 in
(1018 mb)
Calm - 10SM
07:35
Mostly Cloudy
39°F / 4°C 28°F / -2°C 65% 30.06 in
(1018 mb)
Calm - 10SM
07:15
Mostly Cloudy
37°F / 3°C 30°F / -1°C 75% 30.06 in
(1018 mb)
Calm - 10SM
06:55
Mostly Cloudy
34°F / 1°C 28°F / -2°C 81% 30.06 in
(1018 mb)
Calm - 10SM
06:35
Clear
32°F / 0°C 27°F / -3°C 80% 30.06 in
(1018 mb)
Calm - 10SM
06:15
Clear
28°F / -2°C 25°F / -4°C 86% 30.09 in
(1019 mb)
Calm - 10SM
05:55
Clear
25°F / -4°C 23°F / -5°C 93% 30.06 in
(1018 mb)
Calm - 10SM
05:35
Clear
23°F / -5°C 21°F / -6°C 93% 30.06 in
(1018 mb)
Calm - 10SM
05:15
Clear
23°F / -5°C 21°F / -6°C 93% 30.06 in
(1018 mb)
Calm - 10SM
04:55
Clear
23°F / -5°C 21°F / -6°C 93% 30.06 in
(1018 mb)
Calm - 10SM
04:35
Clear
23°F / -5°C 21°F / -6°C 93% 30.06 in
(1018 mb)
Calm - 10SM
04:15
Clear
23°F / -5°C 21°F / -6°C 93% 30.06 in
(1018 mb)
Calm - 10SM
03:55
Clear
25°F / -4°C 23°F / -5°C 93% 30.06 in
(1018 mb)
Calm - 10SM
03:35
Clear
23°F / -5°C 21°F / -6°C 93% 30.06 in
(1018 mb)
Calm - 10SM
03:15
Clear
25°F / -4°C 21°F / -6°C 86% 30.06 in
(1018 mb)
Calm - 10SM
02:55
Clear
25°F / -4°C 19°F / -7°C 80% 30.06 in
(1018 mb)
Calm - 10SM
02:35
Clear
25°F / -4°C 21°F / -6°C 86% 30.06 in
(1018 mb)
Calm - 10SM
02:15
Clear
25°F / -4°C 21°F / -6°C 86% 30.06 in
(1018 mb)
SSE 3.5 mph
(SSE 6 kph)
- 10SM
01:55
Clear
25°F / -4°C 21°F / -6°C 86% 30.06 in
(1018 mb)
Calm - 10SM
01:35
Clear
25°F / -4°C 21°F / -6°C 86% 30.06 in
(1018 mb)
Calm - 10SM
01:15
Clear
25°F / -4°C 19°F / -7°C 80% 30.06 in
(1018 mb)
Calm - 10SM
00:55
Clear
25°F / -4°C 21°F / -6°C 86% 30.06 in
(1018 mb)
Calm - 10SM
00:35
Clear
27°F / -3°C 23°F / -5°C 86% 30.06 in
(1018 mb)
Calm - 10SM
00:15
Clear
27°F / -3°C 21°F / -6°C 80% 30.06 in
(1018 mb)
Calm - 10SM
Time Weather Temperature Dewpoint Humidity Pressure Winds Precip Visibility


Weather for websites

WeatherForYou.com, LLC is not responsible for any damages or problems caused by this service. Current weather conditions are obtained from the closest station including government and personal stations which may have varying degrees of accuracy. Weather forecasts are derived from the NOAA NDFD. Like all things, this site belongs to Jesus Christ... He just trusts us to maintain it. If you have any questions or comments email webmaster@weatherforyou.com

Copyright © 2015, WeatherForYou.com LLC. All rights reserved.